Baton Rouge, LA

7:24 PM CDT on March 25, 2017 (GMT -0500)
Baton Rouge Metro-Ryan

Weather History for KBTR - January, 2014

Change the Weather History Date:

Sunday, January 19, 2014

  Actual Average Record
Temperature  
Mean Temperature 51 °F 52 °F  
Max Temperature 65 °F 62 °F 82 °F (1895)
Min Temperature 36 °F 41 °F 15 °F (1940)
Degree Days  
Heating Degree Days 14 14  
Month to date heating degree days 346 266  
Since 1 July heating degree days 1070 882  
Cooling Degree Days 0 0  
Month to date cooling degree days 0 3  
Year to date cooling degree days 0 3  
Growing Degree Days 2 (Base 50)    
Moisture  
Dew Point 37 °F    
Average Humidity 62    
Maximum Humidity 100    
Minimum Humidity 24    
Precipitation  
Precipitation T in 0.19 in 4.90 in (2017)
Month to date precipitation 1.48 3.45  
Year to date precipitation 1.48 3.45  
Snow  
Snow 0.00 in - - ()
Month to date snowfall 0.0  
Since 1 July snowfall 0.0  
Snow Depth 0.00 in    
Sea Level Pressure  
Sea Level Pressure 30.17 in    
Wind  
Wind Speed 4 mph (West)    
Max Wind Speed 14 mph    
Max Gust Speed 17 mph    
Visibility 10 miles    
Events      
T = Trace of Precipitation, MM = Missing Value Source: NWS Daily Summary

Daily Weather History Graph

Daily Weather History Graph

Search for Another Location

Airport or City:

Trip Planner

Search our weather history database for the weather conditions in past years. The results will help you decide how hot, cold, wet, or windy it might be!

Date:

Astronomy

Jan. 19, 2014 Rise Set
Actual Time 7:01 AM CST 5:29 PM CST
Civil Twilight 6:35 AM CST 5:55 PM CST
Nautical Twilight 6:06 AM CST 6:24 PM CST
Astronomical Twilight 5:37 AM CST 6:53 PM CST
Moon 8:49 PM CST (1/19) 8:47 AM CST (1/19)
Length of Visible Light 11h 19m
Length of Day
10h 28m
Waning Gibbous, 89% of the Moon is Illuminated
Jan 19
Waning Gibbous
Jan 23
Last Quarter
Jan 30
New
Feb 6
First Quarter
Feb 14
Full

Hourly Weather History & Observations

Time (CST) Temp. Windchill Dew Point Humidity Pressure Visibility Wind Dir Wind Speed Gust Speed Precip Events Conditions
12:53 AM 45.0 °F 42.6 °F 37.9 °F 76% 30.12 in - WSW 4.6 mph - N/A   Scattered Clouds
1:53 AM 43.0 °F 41.3 °F 37.9 °F 82% 30.12 in - Variable 3.5 mph - N/A   Clear
2:53 AM 44.1 °F 41.5 °F 39.9 °F 85% 30.12 in - WSW 4.6 mph - N/A   Scattered Clouds
3:02 AM 45.0 °F 43.5 °F 41.0 °F 86% 30.12 in - West 3.5 mph - N/A   Mostly Cloudy
3:35 AM 51.1 °F - 48.9 °F 92% 30.12 in - WSW 8.1 mph - N/A   Overcast
3:53 AM 52.0 °F - 51.1 °F 97% 30.12 in - WSW 5.8 mph - N/A   Overcast
4:46 AM 51.1 °F - 50.0 °F 96% 30.14 in - West 10.4 mph - 0.00 in   Mostly Cloudy
4:53 AM 51.1 °F - 50.0 °F 96% 30.14 in - West 9.2 mph - 0.00 in   Mostly Cloudy
5:53 AM 48.0 °F - 46.9 °F 96% 30.16 in - West 4.6 mph - N/A   Clear
6:53 AM 46.9 °F - 46.0 °F 97% 30.19 in - WNW 4.6 mph - N/A   Clear
7:53 AM 48.9 °F - 46.0 °F 90% 30.21 in - NW 4.6 mph - N/A   Clear
8:53 AM 52.0 °F - 43.0 °F 71% 30.25 in - NW 6.9 mph - N/A   Clear
9:53 AM 55.0 °F - 35.1 °F 47% 30.26 in - North 5.8 mph - N/A   Clear
10:53 AM 57.0 °F - 33.1 °F 40% 30.25 in - Variable 3.5 mph - N/A   Clear
11:53 AM 60.1 °F - 30.0 °F 32% 30.23 in - Variable 3.5 mph - N/A   Clear
12:53 PM 62.1 °F - 30.0 °F 30% 30.18 in - Variable 4.6 mph - N/A   Clear
1:53 PM 63.0 °F - 30.0 °F 29% 30.17 in - North - - N/A   Clear
2:53 PM 64.0 °F - 28.0 °F 26% 30.16 in - Variable 3.5 mph - N/A   Clear
3:53 PM 64.0 °F - 27.0 °F 25% 30.16 in - West 5.8 mph - N/A   Clear
4:53 PM 60.1 °F - 24.1 °F 25% 30.16 in 10.0 mi West 8.1 mph - N/A   Clear
5:53 PM 53.1 °F - 27.0 °F 37% 30.16 in 10.0 mi NW 3.5 mph - N/A   Clear
6:53 PM 48.0 °F - 28.9 °F 48% 30.16 in 10.0 mi Calm Calm - N/A   Clear
7:53 PM 44.1 °F - 33.1 °F 65% 30.17 in 10.0 mi Calm Calm - N/A   Clear
8:53 PM 42.1 °F - 30.9 °F 65% 30.17 in 10.0 mi Calm Calm - N/A   Clear
9:53 PM 39.9 °F - 33.1 °F 77% 30.17 in - Calm Calm - N/A   Clear
10:53 PM 39.0 °F - 32.0 °F 76% 30.17 in 10.0 mi Calm Calm - N/A   Clear
11:53 PM 36.0 °F - 30.0 °F 79% 30.15 in 10.0 mi Calm Calm - N/A   Clear